+ View the NASA Portal
+ Center for Near-Earth Object Studies
IMPORTANT:
The SSD Announcement email list is now available. Major changes are coming in the near future, including possible hostname and/or URL changes. To be notified of such changes, subscribe to this email list.
Please visit
this page
for more details.
Don't show this message again
JPL Small-Body Database Browser
Search:
[
help
]
437495 (2013 YQ64)
Classification:
Main-belt Asteroid
SPK-ID:
2437495
[
Ephemeris
|
Orbit Diagram
|
Orbital Elements
|
Mission Design
|
Physical Parameters
|
Discovery Circumstances
]
[ show orbit diagram ]
Orbital Elements at Epoch 2458600.5 (2019-Apr-27.0) TDB
Reference:
JPL 14
(heliocentric ecliptic J2000)
Element
Value
Uncertainty (1-sigma)
Units
e
.1185623652900881
8.2484e-08
a
2.421350156712184
4.0927e-08
au
q
2.134269154936862
1.9138e-07
au
i
7.294196662506526
9.0419e-06
deg
node
68.63820655175842
6.3431e-05
deg
peri
344.2107414529796
7.319e-05
deg
M
167.6813397292482
4.0536e-05
deg
t
p
2457959.486673182868
(2017-Jul-24.98667318)
0.00014725
TDB
period
1376.210364413707
3.77
3.4893e-05
9.553e-08
d
yr
n
.2615879151247107
6.6323e-09
deg/d
Q
2.708431158487506
4.578e-08
au
Orbit Determination Parameters
# obs. used (total)
76
data-arc span
3529 days (9.66 yr)
first obs. used
2009-09-28
last obs. used
2019-05-28
planetary ephem.
DE431
SB-pert. ephem.
SB431-N16
condition code
0
norm. resid. RMS
.46399
source
ORB
producer
Otto Matic
solution date
2019-Sep-24 07:37:40
Additional Information
Earth MOID
= 1.14628 au
Jupiter MOID
= 2.61726 au
T_jup
= 3.493
[ show covariance matrix ]
[
Ephemeris
|
Orbit Diagram
|
Orbital Elements
|
Mission Design
|
Physical Parameters
|
Discovery Circumstances
]
Physical Parameter Table
Parameter
Symbol
Value
Units
Sigma
Reference
Notes
absolute magnitude
H
17.5
n/a
MPO434610
437495 (2013 YQ64)
Discovered 2009-Sep-28 by Mt. Lemmon Survey at Mount Lemmon
Reference:
Last Updated:
2015-06-04
[
Ephemeris
|
Orbit Diagram
|
Orbital Elements
|
Mission Design
|
Physical Parameters
|
Discovery Circumstances
]
2019-Dec-13 11:10 UT
(server date/time)
Site Manager:
Ryan S. Park
Webmaster
:
Alan B. Chamberlin